User: anonymous   Login
Location: Carnières
(50.1682°N, 3.3474°E)
Time: 19:07:45
(UTC+00:00)
Language:

Cosmos 1953 - Orbit

View from above orbital plane
View from above orbital plane
View from above satellite
View from above satellite

Ground track
Ground track

The orbit data is extracted from the following two-line orbital elements,

1 19210U 88050A   24198.04122324  .00008359  00000-0  43777-3 0  9992
2 19210  82.5131  38.0320 0015986  72.8623 287.4359 15.15561649967360
Epoch (UTC): 16 July 2024 00:59:21
Eccentricity: 0.0015986
inclination: 82.5131°
perigee height: 508 km
apogee height: 530 km
right ascension of ascending node: 38.0320°
argument of perigee: 72.8623°
revolutions per day: 15.15561649
mean anomaly at epoch: 287.4359°
orbit number at epoch: 96736

The dashed part of the orbit path shows where the satellite is in the earth's shadow,  

DLR